FENGYUN 1C DEB

Satellite information

Favourite Embed

Satellite Type and Status

DEBRISIN ORBIT

Key statistics

Satellite FENGYUN 1C DEB at a glance.

Uptime

9619

Days in orbit

Revolutions

≈ 14.6

Per day

Orbit

SSO

Sun Synchronous Orbit

Inclination

98.7

Latest

Satellite identification and parameters

Extended collection of information and parameters for FENGYUN 1C DEB.

Object identification

Identified? True

Debris? True

Object name: FENGYUN 1C DEB

International designator: 1999-025WR

Object number (NORAD): 30232

Object ID (CCSDS): 30232

Country: PEOPLES REPUBLIC OF CHINA (PRC)

Current information (Y/N): Y

RCS size: SMALL

Orbital parameters

Period: 98.456 minutes

Inclination: 98.703 deg

SMA: 7062.992 km

Apoapsis: 781.65 km

Periapsis: 588.063 km

RAAN: 86.4833 deg

Eccentricy: 0.0137043

Argument of periapsis: 284.0179 deg

Mean anomaly: 129.1287 deg

Mean motion: 14.62580311 rev/day

Mean motion (dot): 0.00003565 rev/day2

B* drag term: 0.00062391429 1/REarth

Two-line elements (TLE)

Creation date: Sept. 8, 2025, 6:18 p.m.

Reference frame: TEME

Reference center: EARTH

Epoch: Sept. 8, 2025, 12:14 p.m. UTC

TLE line 0: 0 FENGYUN 1C DEB

TLE line 1: 1 30232U 99025WR 25251.50977532 .00003565 00000-0 62391-3 0 9991

TLE line 2: 2 30232 98.7030 86.4833 0137043 284.0179 129.1287 14.62580311983595

Live tracking on map

Real-time ground track for satellite FENGYUN 1C DEB.

In-orbit conjunctions

A list of the most updated potential collisions computed for object FENGYUN 1C DEB.

Target Orbit TCA Probability of collision Miss distance Type
CZ-6A DEB LEO 2024-11-21 23:32:22 0.0001671038 484.0 (m) DEBRIS
CZ-6A DEB LEO 2024-11-15 02:52:42 0.0003725976 874.0 (m) DEBRIS

Associated space launch

Chinese polar orbiting meteorological satellite

FENGYUN 1C DEB was lifted into orbit during the mission ‘Long March 4B | Feng Yun 1C’, on board a Long March 4B space rocket.

The launch took place on May 10, 1999, 1:33 a.m. from Launch Complex 7.

For more information about the launch, click the button.

Launch to space Long March 4B | Feng Yun 1C
Long March 4B | Feng Yun 1C

Agency: N/A

Status: Launch Successful

Launch date: May 10, 1999, 1:33 a.m. UTC

Rocket: Long March 4B

Launch pad: Launch Complex 7

Location: Taiyuan Satellite Launch Center, People's Republic of China

...

Latest news about this satellite

There are no fresh news available about this satellite. Check back as we update our databases every day.


Newsletter sign-up

Weekly statistics, charts and insights to help you stay on top of the space industry.